www.pogodaiklimat.ru

Погода и климат >> Архив погоды >> Китай >> Хэйлунцзян >> Цзиси


ПОГОДА в Цзиси

  • Прогноз погоды в Цзиси
  • Монитор погоды в Цзиси

АРХИВ ПОГОДЫ в Цзиси

Время (UTC), дата Ветер
(напр.,м/с)
 
Видим.   Явления Облачность Т
(С)
Тd
(С)
f
(%)
Тe
(С)
Тes
(С)
Комфортность P
(гПа)
Po
(гПа)
Тmin
(С)
Tmax
(С)
R
(мм)
R24
(мм)
S
(см)
00 12.06 ЮВ 2 20 км 9/9 1000 м
[]
+20.5 +14.2 67 +24 +25 комфорт 1007.8 976.3
03 12.06 С 5 18 км 8/8 600 м
[]
+22.3 +14.9 63 +26 +28 жарко 1007.1 980.2
06 12.06 З 2 28 км 9/9 600 м
[]
+23.7 +13.8 54 +26 +27 жарко 1006.1 974.6 +14.6
09 12.06 В 3 16 км {дождь} 8/8 600 м
[]
+20.5 +15.9 75 +24 +24 комфорт 1006.2 979.2
12 12.06 В 3 16 км {дождь} 8/8 600 м
[]
+18.8 +15.7 82 +20 +20 1006.8 975.3 0.0
15 12.06 В 4 12 км н/о +17.3 +15.6 90 +17 +17 1005.6 978.3
18 12.06 В 1 11 км н/о +16.8 +15.3 91 +18 +18 1004.9 973.5 +24.8
21 12.06 ЮВ 1 3700 м дымка н/о +16.6 +15.8 95 +17 +17 1004.5 977.2
00 13.06 ЮВ 1 18 км 9/9 600 м
[]
+21.0 +15.8 72 +26 +27 душно 1003.7 972.3
03 13.06 Ю 1 21 км 9/9 600 м
[]
+22.6 +16.2 67 +27 +29 душно 1002.3 975.6
06 13.06 В 2 19 км 9/9 600 м
[]
+25.2 +16.4 58 +29 +30 душно 999.8 968.6 +15.9
09 13.06 З 3 4100 м слаб. дождь 9/9 600 м
[]
+20.0 +18.1 89 +23 +24 комфорт 1000.5 973.6
12 13.06 ЮЗ 1 16 км слаб. дождь 9/9 600 м
[]
+18.8 +16.9 89 +21 +21 комфорт 1000.4 969.1 8
15 13.06 З 6
{18}
30 км слаб. дождь ?/? +16.2 +14.7 91 +15 +15 1001.4 974.1
18 13.06 З 4
{18}
23 км ?/? +16.8 +15.0 89 +16 +16 1001.6 970.4 +25.9 4
21 13.06 ЮЗ 5 16 км н/о +17.1 +15.3 89 +16 +16 1002.4 975.2
00 14.06 ЮЗ 4 16 км 8/8 1000 м
[]
+19.8 +15.9 78 +22 +24 комфорт 1003.1 971.7 4
03 14.06 Ю 2 24 км 4/4 600 м
[]
+23.4 +14.4 57 +27 +39 душно 1002.5 975.8
06 14.06 С 3 17 км слаб. дождь 9/9 600 м
[]
+15.0 +12.9 87 +14 +15 1004.7 972.8 +15.0 3
09 14.06 В 3 25 км {дождь} 9/9 600 м
[]
+16.8 +14.4 86 +17 +17 1004.2 976.9
12 14.06 В 4 19 км слаб. дождь 9/9 600 м
[]
+14.6 +12.8 89 +13 +13 1006.2 974.4 0.2
15 14.06 В 4 10 км слаб. дождь ?/? +12.0 +10.9 93 +10 +10 1006.7 978.9
18 14.06 СВ 4 15 км слаб. дождь ?/? +10.7 +9.8 94 +8 +8 1007.3 975.0 +24.9 2
21 14.06 С 3 17 км слаб. дождь ?/? +9.5 +8.6 94 +7 +7 1008.2 980.1
00 15.06 С 5 12 км слаб. дождь 10/10 600 м
[]
+9.2 +8.0 92 +6 +6 1009.2 976.8 7
03 15.06 С 4 14 км слаб. дождь 10/10 600 м
[]
+9.5 +8.3 92 +7 +7 1009.7 981.5
06 15.06 С 4 17 км слаб. дождь 10/10 600 м
[]
+10.5 +8.9 90 +8 +8 1009.3 976.7 +9.1 7
09 15.06 СЗ 1 15 км слаб. дождь 10/10 600 м
[]
+11.5 +9.9 90 +11 +11 1009.6 981.6
12 15.06 С 1 21 км слаб. дождь 10/10
[]
+11.8 +9.0 83 +12 +12 1010.5 977.9 4
15 15.06 С 5 30 км ?/? +11.7 +8.0 78 +9 +9 1010.5 982.5
18 15.06 С 4 30 км ?/? +10.8 +5.6 70 +9 +9 1010.1 977.5 +12.2 0.1
21 15.06 С 3 30 км ?/? +9.7 +4.9 72 +8 +8 1010.9 982.7
00 16.06 С 4 29 км 5/5 1000 м
[]
+12.7 +6.1 64 +11 +15 1010.9 978.4 0.1
03 16.06 С 6 30 км 8/8 600 м
[]
+16.8 +7.7 55 +16 +17 1009.9 982.4
06 16.06 С 4 30 км 4/4 600 м
[]
+18.7 +7.2 47 +19 +24 1008.9 976.8 +9.6
09 16.06 С 4 30 км 1/1 600 м
[]
+18.8 +4.9 40 +19 +21 1008.8 981.5
12 16.06 З 3 29 км ясно +13.6 +4.7 55 +13 +13 1009.8 977.5
15 16.06 З 2 30 км ?/? +11.0 +4.7 65 +10 +10 1009.6 981.6
18 16.06 З 3 27 км н/о +7.3 +5.6 89 +4 +4 1010.1 977.8 +19.5
21 16.06 З 1 23 км ?/? +8.3 +5.6 83 +8 +8 1010.6 982.3
00 17.06 З 4 28 км 5/5
[]
+15.4 +6.4 55 +15 +18 1010.4 978.2
03 17.06 З 4 30 км 9/9 600 м
[]
+20.0 +6.0 40 +21 +22 комфорт 1009.4 982.2
06 17.06 С 1 30 км в посл. час дождь 8/8 600 м
[]
+16.5 +7.4 55 +17 +21 1009.9 977.4 +7.2 0.0
09 17.06 В 3 30 км 9/9 600 м
[]
+17.4 +4.4 42 +17 +18 1008.9 981.5
12 17.06 В 3 25 км в посл. час дождь 9/9 600 м
[]
+16.1 +8.3 60 +16 +16 1008.7 976.7 0.0
15 17.06 В 1 23 км н/о +13.1 +11.2 88 +13 +13 1008.1 980.3
18 17.06 С 2 16 км слаб. дождь ?/? +12.5 +11.1 91 +12 +12 1007.4 975.3 +20.5 1
21 17.06 В 3 21 км н/о +11.9 +10.8 93 +10 +10 1007.3 979.4
00 18.06 С 1 18 км 8/8 600 м
[]
+15.1 +11.7 80 +16 +18 1006.6 974.7 0.6
03 18.06 С 4 26 км 9/9 600 м
[]
+17.3 +11.8 70 +17 +18 1006.1 978.8
06 18.06 С 4 20 км 3/3 600 м
[]
+18.2 +11.5 65 +18 +24 1005.6 973.7 +11.8
09 18.06 СЗ 3 19 км 6/6 1000 м
[]
+17.1 +11.2 68 +17 +18 1005.7 978.4
12 18.06 С 1 21 км ясно +14.6 +10.2 75 +15 +15 1006.3 974.3
15 18.06 З 1 14 км н/о +11.3 +9.9 91 +11 +11 1006.1 978.2
18 18.06 З 2 15 км н/о +10.5 +9.1 91 +9 +9 1004.9 972.9 +19.3
21 18.06 З 3 13 км слаб. дождь н/о +11.1 +9.5 90 +9 +9 1004.4 976.5

 

Местоположение метеостанции Цзиси (Хэйлунцзян, Китай): широта 45.28 долгота 130.94 высота над уровнем моря 234 м.

В архиве по умолчанию представлена погода в Цзиси за последнюю неделю. Архивные данные за месяц целиком и за предыдущие месяцы, начиная с января 2011 года, Вы можете получить, выбрав интересующий диапазон дат из раскрывающегося списка и нажав кнопку "Ввод!".


*Определитесь, кто Вы:
робот инопланетянин человек

Внимание! Время в таблицах - всемирное. Для получения местного времени необходимо прибавить поправку, которая равна 8 ч.

Смотрите также архив погоды в соседних городах и на ближайших метеорологических станциях:

Погода в Турьем Роге (Приморский край, Россия) (82 км)
Погода в Суйфэньхэ (Хэйлунцзян, Китай) (101 км)
Погода в Пограничном (Приморский край, Россия) (102 км)
Погода в Астраханке (Приморский край, Россия) (104 км)
Погода в Хороле (Приморский край, Россия) (126 км)
Погода в Муданьцзяне (Хэйлунцзян, Китай) (132 км)
Погода в Полтавке (Приморский край, Россия) (142 км)
Погода в Баоцине (Хэйлунцзян, Китай) (150 км)
Погода в Спасск-Дальнем (Приморский край, Россия) (163 км)
Погода в Хулине (Хэйлунцзян, Китай) (167 км)

Пояснения к столбцам:

Ветер - указаны скорость ветра в м/с - средняя за 10 мин, порывы в срок и между сроками (в фигурных скобках) и направление, откуда дует ветер: С - северный, СВ - северо-восточный, В - восточный, ЮВ - юго-восточный, Ю - южный, ЮЗ - юго-западный, З - западный, СЗ - северо-западный.
Видимость - горизонтальная дальность видимости в метрах или километрах. При видимости от 1 до 10 км при отсутствии осадков обычно наблюдается дымка, при ухудшении видимости до 1 км и менее - туман. В сухую погоду видимость может ухудшаться дымом, пылью или мглою.
Явления - указаны атмосферные явления, наблюдавшиеся в срок или в последний час перед сроком; фигурными скобками обозначены явления, наблюдавшиеся между сроками (за 1-3 часа до срока); квадратными скобками обозначены град или гололедные отложения с указанием их диаметра в мм.
Облачность - указаны через наклонную черту общая и нижняя облачность в баллах и высота нижней границы облаков в метрах; квадратными скобками обозначены формы облаков: Ci - перистые, Cs - перисто-слоистые, Cc - перисто-кучевые, Ac - высококучевые, As - высокослоистые, Sc - слоисто-кучевые, Ns - слоисто-дождевые, Cu - кучевые, Cb - кучево-дождевые. Подробнее классификацию облаков см. в Атласе облаков (PDF).
T - Температура воздуха - температура, измеренная на высоте 2 м над землей.
Td - Температура точки росы - температура, при понижении до которой содержащийся в воздухе водяной пар достигнет насыщения.
f - Относительная влажность воздуха - влажноcть воздуха, измеренная на высоте 2 м над землей.
Te - Эффективная температура - температура, которую ощущает одетый по сезону человек в тени. Характеристика душности погоды. При расчете учитывается влияние влажности воздуха и скорости ветра на теплоощущения человека.
Tes - Эффективная температура на солнце - температура, которую ощущает человек, с поправкой на солнечный нагрев. Характеристика знойности погоды. Зависит от высоты солнца над горизонтом, облачности и скорости ветра. Ночью, в пасмурную погоду, а также при ветре 12 м/с и более поправка равна нулю.
P - Атмосферное давление - приведенное к уровню моря атмосферное давление.
Po - Атмосферное давление - измеренное на уровне метеостанции атмосферное давление.
Tmin - Минимальная температура - минимум температуры воздуха на высоте 2 м над землей.
Tmax - Максимальная температура - максимум температуры воздуха на высоте 2 м над землей.
R - Количество осадков - Количество выпавших осадков за период времени, мм. При наведении курсора мыши на число - период времени, за который выпало указанное количество осадков.
R24 - Количество осадков - Количество выпавших осадков за 24 часа, мм.
S - Снежный покров - Высота снежного покрова, см. При наведении курсора мыши на число - состояние снежного покрова и степень покрытия местности в баллах.